Regional Weather Roundup
Issued by NWS Northern Indiana

Home | Current Version | Previous Version | Text Only | Print | Product List | Glossary On
Versions: 1 2 3 4 5 6 7 8 9 10 11 12 13 14 15 16 17 18 19 20 21 22 23 24 25 26 27 28 29 30 31 32 33 34 35 36 37 38 39 40 41 42 43 44 45 46 47 48 49 50
000
ASUS43 KIWX 270810
RWRIWX

KIWX WEATHER ROUNDUP
NATIONAL WEATHER SERVICE NORTHERN INDIANA
300 AM EST SAT DEC 27 2014

NOTE: "FAIR" INDICATES FEW OR NO CLOUDS BELOW 12,000 FEET WITH NO
SIGNIFICANT WEATHER AND/OR OBSTRUCTIONS TO VISIBILITY.

* THESE STATIONS ARE NOT UNDER NWS QUALITY CONTROL. THEY ALSO MAY NOT
  REPORT WEATHER SUCH AS PRECIPITATION OR FOG.

INZ001>027-270900-
NORTHERN INDIANA

CITY           SKY/WX    TMP DP  RH WIND       PRES   REMARKS
GARY*          CLOUDY    49  40  70 S8        30.02F
VALPARAISO     CLOUDY    44  41  89 S6        30.06S
MICHIGAN CITY* CLOUDY    46  37  71 S8        30.05S
LAPORTE*       MOCLDY    46  44  93 S7        30.06F
KNOX*          CLOUDY    46  38  76 S9        30.06S
SOUTH BEND     CLOUDY    47  42  83 S10       30.06F
GOSHEN         CLOUDY    46  41  82 S9        30.08S
MONTICELLO*    CLOUDY    47  42  83 S10       30.08R
LOGANSPORT*    CLOUDY    45  39  81 S9        30.10S
ROCHESTER*     LGT RAIN  46  43  87 S8        30.10R
WARSAW*        CLOUDY    45  41  87 S3        30.09R
ANGOLA*        CLOUDY    43  39  87 S6        30.10R
FORT WAYNE     CLOUDY    46  39  76 S12       30.12S
HUNTINGTON*    CLOUDY    45  41  84 S6        30.11S
PERU/GRISSOM   CLOUDY    46  46  99 S8        30.09R
MARION*        CLOUDY    44  38  78 S7        30.13R

$$
INZ028>050-270900-
CENTRAL INDIANA

CITY           SKY/WX    TMP DP  RH WIND       PRES   REMARKS
LAFAYETTE      CLOUDY    47  40  76 SW7       30.11R
KOKOMO*        CLOUDY    45  39  81 S10       30.10S
MUNCIE*        CLOUDY    47  37  68 SW8       30.13R
INDIANAPOLIS   CLOUDY    45  36  70 S12       30.13R

$$
MIZ043>046-050>051-056>058-064>065-071>073-077>080-270900-
SOUTHWEST LOWER MICHIGAN

CITY           SKY/WX    TMP DP  RH WIND       PRES   REMARKS
BATTLE CREEK   CLOUDY    45  40  82 S9        30.07F
BENTON HARBOR  CLOUDY    44  41  89 SE6       30.05S
COLDWATER*     CLOUDY    44  40  87 S5        30.08S
HILLSDALE*     CLOUDY    43  41  94 S7        30.09R
HOLLAND        CLEAR     43  39  86 S7        30.03F
GRAND RAPIDS   MOCLDY    44  39  82 S10       30.05R
KALAMAZOO      CLOUDY    44  39  82 S5        30.07S
STURGIS*       CLOUDY    45  41  87 S6        30.08R
THREE RIVERS*  MOCLDY    41  38  89 S5        30.08S

$$
OHZ001>008-015>018-024>025-270900-
NORTHWEST OHIO

CITY           SKY/WX    TMP DP  RH WIND       PRES   REMARKS
WAUSEON*       CLOUDY    45  41  87 S7        30.12S
DEFIANCE       CLOUDY    45  39  79 S8        30.13R
FINDLAY        CLOUDY    44  37  76 S9        30.14R
TOLEDO EXPRESS CLOUDY    43  37  79 S5        30.13R
TOLEDO METCALF CLOUDY    45  37  73 SW8       30.14R
LIMA           CLOUDY    47  36  65 S9        30.15R

$$
AND FOR LAKE MICHIGAN COASTAL AND OPEN LAKE BUOY OBSERVATIONS

STATION/POSITION TEMP    WIND        PRES    VSBY  WAVE
                 AIR SEA DIR/SP/G                  HT/PER
                 (F)     (DEG/KT/KT) (MB)    (MI)  (FT/S)
CALUMET HARBOR    47     170/  9/ 11 1015.4S
MICHIGAN CITY     47     160/ 12/ 16   N/A
SAINT JOSEPH      46     130/  3/  5 1017.3F

$$
&&


USA.gov is the U.S. government's official web portal to all federal, state and local government web resources and services.